Weather History for Fort Drum, NY

Change the Weather History Date:

Sunday, March 17, 2013

  Actual Average Record
Temperature  
Mean Temperature 19 °F -  
Max Temperature 26 °F 33 °F 62 °F (2012)
Min Temperature 12 °F 18 °F -2 °F (2014)
Degree Days  
Heating Degree Days 46    
Moisture  
Dew Point 6 °F    
Average Humidity 60    
Maximum Humidity 79    
Minimum Humidity 35    
Precipitation  
Precipitation 0.00 in - - ()
Sea Level Pressure  
Sea Level Pressure 30.13 in    
Wind  
Wind Speed 6 mph (WNW)    
Max Wind Speed 13 mph    
Max Gust Speed 18 mph    
Visibility 10 miles    
Events      
Averages and records for this station are not official NWS values.
T = Trace of Precipitation, MM = Missing Value Source: NWS Daily Summary

Daily Weather History Graph

Daily Weather History Graph

Search for Another Location

Airport:

Trip Planner

Search our weather history database for the weather conditions in past years. The results will help you decide how hot, cold, wet, or windy it might be!

Date:

Astronomy

Mar. 17, 2013 Rise Set
Actual Time 7:11 AM EDT 7:11 PM EDT
Civil Twilight 6:42 AM EDT 7:40 PM EDT
Nautical Twilight 6:08 AM EDT 8:14 PM EDT
Astronomical Twilight 5:34 AM EDT 8:48 PM EDT
Moon 10:10 AM EDT (3/17) 12:28 AM EDT (3/17)
Length of Visible Light 12h 58m
Length of Day
12h 00m
Waxing Crescent, 31% of the Moon is Illuminated
Mar 17
Waxing Crescent
Mar 19
First Quarter
Mar 27
Full
Apr 3
Last Quarter
Apr 10
New

Hourly Weather History & Observations

Time (EDT) Temp. Windchill Dew Point Humidity Pressure Visibility Wind Dir Wind Speed Gust Speed Precip Events Conditions
12:55 AM 12.6 °F 4.8 °F 6.4 °F 77% 29.95 in 10.0 mi SSE 4.6 mph - N/A   Clear
1:55 AM 13.1 °F 4.0 °F 6.4 °F 75% 29.97 in 10.0 mi South 5.8 mph - N/A   Partly Cloudy
2:17 AM 14.0 °F 5.1 °F 6.8 °F 73% 29.97 in 10.0 mi SSE 5.8 mph - N/A   Mostly Cloudy
2:19 AM 14.0 °F 5.1 °F 6.8 °F 73% 29.97 in 10.0 mi SSE 5.8 mph - N/A   Mostly Cloudy
2:20 AM 14.0 °F 5.1 °F 6.8 °F 73% 29.97 in 10.0 mi SSE 5.8 mph - N/A   Overcast
2:55 AM 13.3 °F 5.6 °F 7.5 °F 78% 29.98 in 10.0 mi SSE 4.6 mph - N/A   Overcast
3:32 AM 14.0 °F - 8.6 °F 79% 29.99 in 10.0 mi Calm Calm - N/A   Mostly Cloudy
3:55 AM 16.9 °F 7.4 °F 11.5 °F 79% 29.98 in 10.0 mi WNW 6.9 mph - N/A   Clear
4:16 AM 17.6 °F 6.4 °F 12.2 °F 79% 29.98 in 10.0 mi WNW 9.2 mph - N/A   Mostly Cloudy
4:50 AM 17.6 °F 5.0 °F 10.4 °F 73% 29.99 in 10.0 mi West 11.5 mph 18.4 mph N/A   Mostly Cloudy
4:55 AM 18.0 °F 5.4 °F 10.2 °F 72% 29.99 in 10.0 mi WNW 11.5 mph 18.4 mph N/A   Scattered Clouds
5:55 AM 16.9 °F 3.4 °F 7.9 °F 68% 30.04 in 10.0 mi WNW 12.7 mph 18.4 mph N/A   Mostly Cloudy
6:55 AM 16.9 °F 6.4 °F 7.0 °F 65% 30.08 in 10.0 mi NW 8.1 mph - N/A   Mostly Cloudy
7:55 AM 15.8 °F 7.2 °F 6.8 °F 68% 30.11 in 10.0 mi NW 5.8 mph - N/A   Clear
8:55 AM 18.1 °F 11.3 °F 7.0 °F 62% 30.13 in 10.0 mi NW 4.6 mph - N/A   Clear
9:55 AM 20.1 °F 10.3 °F 7.2 °F 57% 30.15 in 10.0 mi NW 8.1 mph - N/A   Clear
10:55 AM 22.1 °F 12.8 °F 5.9 °F 50% 30.18 in 10.0 mi WNW 8.1 mph - N/A   Clear
11:55 AM 23.7 °F 14.0 °F 6.1 °F 47% 30.20 in 10.0 mi NW 9.2 mph - N/A   Clear
12:55 PM 24.8 °F 17.9 °F 3.7 °F 41% 30.21 in 10.0 mi WNW 5.8 mph 18.4 mph N/A   Clear
1:55 PM 25.3 °F 15.3 °F 3.6 °F 39% 30.22 in 10.0 mi NW 10.4 mph - N/A   Partly Cloudy
2:55 PM 26.2 °F 16.4 °F 3.4 °F 38% 30.23 in 10.0 mi NW 10.4 mph 17.3 mph N/A   Partly Cloudy
3:55 PM 25.7 °F 17.1 °F 2.1 °F 36% 30.23 in 10.0 mi North 8.1 mph 18.4 mph N/A   Clear
4:55 PM 25.9 °F 16.6 °F 2.7 °F 37% 30.24 in 10.0 mi NNW 9.2 mph - N/A   Clear
5:55 PM 25.3 °F 17.6 °F 1.0 °F 35% 30.26 in 10.0 mi NW 6.9 mph - N/A   Clear
6:55 PM 24.1 °F 17.0 °F 1.0 °F 37% 30.28 in 10.0 mi North 5.8 mph - N/A   Clear
7:55 PM 21.9 °F - 1.2 °F 41% 30.31 in 10.0 mi Calm Calm - N/A   Clear
8:55 PM 19.6 °F - 2.5 °F 48% 30.32 in 10.0 mi Calm Calm - N/A   Clear
9:55 PM 19.2 °F - 7.9 °F 61% 30.34 in 10.0 mi Calm Calm - N/A   Clear
10:55 PM 19.0 °F 11.1 °F 6.4 °F 58% 30.35 in 10.0 mi ESE 5.8 mph - N/A   Clear
11:55 PM 17.2 °F 11.9 °F 7.5 °F 66% 30.35 in 10.0 mi SE 3.5 mph - N/A   Clear